Location: Ay?beleni
(36.6500°N, 30.3000°E)
Time: 04:11:05
(UTC+00:00)

Cosmos 967 Rocket - Pass Details

Date: 16 October 2021
Orbit: 943 x 994 km, 65.8° (Epoch: 08 December)

Event Time Altitude Azimuth Distance (km) Brightness Sun altitude
Rises 17:02:47 0° 331° (NNW) 3,704 8.0 -21.2°
Reaches altitude 10° 17:05:21 10° 332° (NNW) 2,757 7.3 -21.7°
Maximum altitude 17:11:51 88° 61° (ENE) 999 4.4 -23.0°
Enters shadow 17:15:25 29° 151° (SSE) 1,732 5.5 -23.7°
